| time (UTC) | temp F | wind direction | speed MPH | gust MPH | rain 1hr in | rain 24hr in | rain mn in | humidity % | barometer mb |
| 20260902230732 | 80 | 300 | 1.0 | 4.0 | 0.00 | 0.00 | 0.00 | 25 | 1035.0 |
| 20260902230232 | 81 | 257 | 0.0 | 5.0 | 0.00 | 0.00 | 0.00 | 24 | 1034.9 |
| 20260902225732 | 81 | 218 | 5.0 | 12.0 | 0.00 | 0.00 | 0.00 | 24 | 1034.8 |
| 20260902225235 | 81 | 258 | 0.0 | 4.0 | 0.00 | 0.00 | 0.00 | 24 | 1034.7 |
| 20260902224735 | 81 | 243 | 0.0 | 0.0 | 0.00 | 0.00 | 0.00 | 25 | 1034.7 |
| 20260902224235 | 80 | 267 | 0.0 | 8.0 | 0.00 | 0.00 | 0.00 | 25 | 1034.8 |
| 20260902223732 | 79 | 256 | 6.0 | 9.0 | 0.00 | 0.00 | 0.00 | 25 | 1034.7 |
| 20260902223232 | 80 | 236 | 5.0 | 9.0 | 0.00 | 0.00 | 0.00 | 25 | 1034.8 |
| 20260902222735 | 81 | 266 | 0.0 | 12.0 | 0.00 | 0.00 | 0.00 | 24 | 1034.7 |
| 20260902222235 | 82 | 250 | 9.0 | 10.0 | 0.00 | 0.00 | 0.00 | 24 | 1034.6 |
| 20260902221732 | 82 | 272 | 0.0 | 9.0 | 0.00 | 0.00 | 0.00 | 24 | 1034.5 |
| 20260902221235 | 82 | 286 | 0.0 | 7.0 | 0.00 | 0.00 | 0.00 | 24 | 1034.4 |
| 20260902220732 | 82 | 259 | 0.0 | 8.0 | 0.00 | 0.00 | 0.00 | 23 | 1034.4 |
| 20260902220235 | 82 | 291 | 0.0 | 6.0 | 0.00 | 0.00 | 0.00 | 23 | 1034.4 |
| 20260902215735 | 83 | 271 | 0.0 | 0.0 | 0.00 | 0.00 | 0.00 | 23 | 1034.3 |
| 20260902215235 | 83 | 194 | 0.0 | 5.0 | 0.00 | 0.00 | 0.00 | 23 | 1034.4 |
| 20260902214735 | 82 | 158 | 0.0 | 8.0 | 0.00 | 0.00 | 0.00 | 23 | 1034.3 |
| 20260902214235 | 82 | 266 | 0.0 | 6.0 | 0.00 | 0.00 | 0.00 | 24 | 1034.2 |
| 20260902213732 | 82 | 215 | 6.0 | 10.0 | 0.00 | 0.00 | 0.00 | 23 | 1034.3 |
| 20260902213232 | 82 | 219 | 2.0 | 8.0 | 0.00 | 0.00 | 0.00 | 22 | 1034.2 |
| 20260902212735 | 82 | 307 | 0.0 | 5.0 | 0.00 | 0.00 | 0.00 | 24 | 1034.1 |
| 20260902212235 | 81 | 223 | 0.0 | 10.0 | 0.00 | 0.00 | 0.00 | 23 | 1034.2 |
| 20260902211732 | 81 | 264 | 0.0 | 10.0 | 0.00 | 0.00 | 0.00 | 24 | 1034.2 |
| 20260902211235 | 81 | 233 | 0.0 | 11.0 | 0.00 | 0.00 | 0.00 | 24 | 1034.1 |
| 20260902210732 | 81 | 274 | 2.0 | 7.0 | 0.00 | 0.00 | 0.00 | 25 | 1034.1 |
| 20260902210232 | 80 | 274 | 0.0 | 8.0 | 0.00 | 0.00 | 0.00 | 24 | 1034.1 |
| 20260902205735 | 79 | 258 | 6.0 | 11.0 | 0.00 | 0.00 | 0.00 | 30 | 1034.0 |
| 20260902205235 | 78 | 94 | 0.0 | 0.0 | 0.00 | 0.00 | 0.00 | 35 | 1034.1 |
| 20260902204732 | 77 | 83 | 0.0 | 0.0 | 0.00 | 0.00 | 0.00 | 37 | 1034.2 |
| 20260902204235 | 77 | 85 | 0.0 | 0.0 | 0.00 | 0.00 | 0.00 | 35 | 1034.3 |
| 20260902203735 | 77 | 84 | 0.0 | 0.0 | 0.00 | 0.00 | 0.00 | 36 | 1034.2 |
| 20260902203232 | 77 | 58 | 0.0 | 0.0 | 0.00 | 0.00 | 0.00 | 36 | 1034.2 |
| 20260902202735 | 78 | 129 | 0.0 | 0.0 | 0.00 | 0.00 | 0.00 | 35 | 1034.2 |
| 20260902202232 | 79 | 150 | 0.0 | 0.0 | 0.00 | 0.00 | 0.00 | 32 | 1034.2 |
| 20260902201732 | 79 | 169 | 0.0 | 0.0 | 0.00 | 0.00 | 0.00 | 35 | 1034.1 |
| 20260902201235 | 79 | 148 | 0.0 | 8.0 | 0.00 | 0.00 | 0.00 | 36 | 1034.3 |
| 20260902200735 | 77 | 174 | 0.0 | 0.0 | 0.00 | 0.00 | 0.00 | 37 | 1034.2 |
| 20260902200232 | 76 | 85 | 0.0 | 0.0 | 0.00 | 0.00 | 0.00 | 38 | 1034.3 |
| 20260902195735 | 76 | 90 | 0.0 | 0.0 | 0.00 | 0.00 | 0.00 | 39 | 1034.4 |
| 20260902195232 | 75 | 198 | 0.0 | 0.0 | 0.00 | 0.00 | 0.00 | 41 | 1034.4 |
| 20260902194735 | 74 | 125 | 0.0 | 0.0 | 0.00 | 0.00 | 0.00 | 41 | 1034.3 |
| 20260902194232 | 75 | 108 | 0.0 | 0.0 | 0.00 | 0.00 | 0.00 | 40 | 1034.4 |
| 20260902193732 | 74 | 148 | 0.0 | 0.0 | 0.00 | 0.00 | 0.00 | 41 | 1034.3 |
| 20260902193232 | 74 | 159 | 0.0 | 0.0 | 0.00 | 0.00 | 0.00 | 41 | 1034.4 |
| 20260902192735 | 74 | 86 | 0.0 | 0.0 | 0.00 | 0.00 | 0.00 | 41 | 1034.5 |
| 20260902192235 | 74 | 117 | 0.0 | 0.0 | 0.00 | 0.00 | 0.00 | 42 | 1034.4 |
| 20260902191733 | 75 | 101 | 0.0 | 7.0 | 0.00 | 0.00 | 0.00 | 40 | 1034.5 |
| 20260902191232 | 76 | 77 | 0.0 | 9.0 | 0.00 | 0.00 | 0.00 | 39 | 1034.6 |
| 20260902190732 | 76 | 70 | 0.0 | 0.0 | 0.00 | 0.00 | 0.00 | 40 | 1034.6 |
| 20260902190235 | 75 | 50 | 0.0 | 0.0 | 0.00 | 0.00 | 0.00 | 41 | 1034.7 |
| 20260902185732 | 75 | 9 | 0.0 | 0.0 | 0.00 | 0.00 | 0.00 | 40 | 1034.8 |
| 20260902185235 | 75 | 139 | 0.0 | 0.0 | 0.00 | 0.00 | 0.00 | 42 | 1034.8 |
| 20260902184735 | 74 | 173 | 0.0 | 0.0 | 0.00 | 0.00 | 0.00 | 42 | 1034.8 |
| 20260902184235 | 75 | 90 | 0.0 | 6.0 | 0.00 | 0.00 | 0.00 | 40 | 1034.8 |
| 20260902183732 | 77 | 46 | 0.0 | 9.0 | 0.00 | 0.00 | 0.00 | 39 | 1034.8 |
| 20260902183232 | 78 | 151 | 0.0 | 0.0 | 0.00 | 0.00 | 0.00 | 39 | 1034.9 |
| 20260902182735 | 77 | 143 | 0.0 | 8.0 | 0.00 | 0.00 | 0.00 | 40 | 1034.9 |
| 20260902182232 | 78 | 114 | 7.0 | 8.0 | 0.00 | 0.00 | 0.00 | 39 | 1035.0 |
| 20260902181732 | 77 | 188 | 0.0 | 7.0 | 0.00 | 0.00 | 0.00 | 42 | 1034.9 |
| 20260902181232 | 75 | 184 | 0.0 | 10.0 | 0.00 | 0.00 | 0.00 | 42 | 1034.9 |
| 20260902180732 | 75 | 1 | 0.0 | 10.0 | 0.00 | 0.00 | 0.00 | 42 | 1034.9 |
| 20260902180232 | 75 | 352 | 0.0 | 0.0 | 0.00 | 0.00 | 0.00 | 42 | 1034.9 |
| 20260902175735 | 73 | 141 | 0.0 | 8.0 | 0.00 | 0.01 | 0.00 | 46 | 1035.0 |
| 20260902175232 | 72 | 82 | 0.0 | 6.0 | 0.00 | 0.01 | 0.00 | 47 | 1034.9 |
| 20260902174735 | 71 | 125 | 0.0 | 0.0 | 0.00 | 0.01 | 0.00 | 48 | 1035.0 |
| 20260902174235 | 71 | 92 | 0.0 | 7.0 | 0.00 | 0.01 | 0.00 | 49 | 1035.0 |
| 20260902173735 | 72 | 83 | 0.0 | 6.0 | 0.00 | 0.01 | 0.00 | 47 | 1035.0 |
| 20260902173235 | 72 | 74 | 0.0 | 7.0 | 0.00 | 0.01 | 0.00 | 48 | 1035.0 |
| 20260902172732 | 72 | 61 | 0.0 | 8.0 | 0.00 | 0.01 | 0.00 | 48 | 1034.9 |
| 20260902172235 | 72 | 50 | 0.0 | 8.0 | 0.00 | 0.01 | 0.00 | 48 | 1035.0 |
| 20260902171735 | 72 | 82 | 0.0 | 9.0 | 0.00 | 0.01 | 0.00 | 48 | 1035.0 |
| 20260902171235 | 71 | 68 | 3.0 | 10.0 | 0.00 | 0.01 | 0.00 | 48 | 1035.2 |
| 20260902170732 | 72 | 56 | 6.0 | 8.0 | 0.00 | 0.01 | 0.00 | 49 | 1035.1 |
| 20260902170232 | 71 | 49 | 0.0 | 9.0 | 0.00 | 0.01 | 0.00 | 51 | 1035.1 |
| 20260902165732 | 72 | 65 | 0.0 | 7.0 | 0.00 | 0.01 | 0.00 | 50 | 1035.2 |
| 20260902165232 | 73 | 87 | 0.0 | 5.0 | 0.00 | 0.01 | 0.00 | 49 | 1035.1 |
| 20260902164732 | 72 | 154 | 0.0 | 0.0 | 0.00 | 0.01 | 0.00 | 52 | 1035.1 |
| 20260902164235 | 72 | 139 | 0.0 | 0.0 | 0.00 | 0.01 | 0.00 | 53 | 1035.0 |
| 20260902163732 | 72 | 91 | 0.0 | 0.0 | 0.00 | 0.01 | 0.00 | 53 | 1035.0 |
| 20260902163235 | 71 | 61 | 0.0 | 0.0 | 0.00 | 0.01 | 0.00 | 52 | 1034.9 |
| 20260902162735 | 71 | 63 | 0.0 | 0.0 | 0.00 | 0.01 | 0.00 | 53 | 1034.9 |
| 20260902162232 | 71 | 150 | 0.0 | 0.0 | 0.00 | 0.01 | 0.00 | 54 | 1034.8 |
| 20260902161735 | 70 | 107 | 0.0 | 0.0 | 0.00 | 0.01 | 0.00 | 56 | 1034.7 |
| 20260902161235 | 69 | 103 | 0.0 | 0.0 | 0.00 | 0.01 | 0.00 | 56 | 1034.7 |
| 20260902160735 | 68 | 13 | 0.0 | 0.0 | 0.00 | 0.01 | 0.00 | 56 | 1034.8 |
| 20260902160232 | 68 | 305 | 0.0 | 0.0 | 0.00 | 0.01 | 0.00 | 57 | 1034.7 |
| 20260902155732 | 68 | 82 | 0.0 | 0.0 | 0.00 | 0.01 | 0.00 | 55 | 1034.7 |
| 20260902155232 | 69 | 101 | 0.0 | 0.0 | 0.00 | 0.01 | 0.00 | 55 | 1034.6 |
| 20260902154735 | 69 | 3 | 0.0 | 0.0 | 0.00 | 0.01 | 0.00 | 54 | 1034.6 |
| 20260902154235 | 70 | 145 | 0.0 | 0.0 | 0.00 | 0.01 | 0.00 | 54 | 1034.6 |
| 20260902153735 | 70 | 77 | 0.0 | 0.0 | 0.00 | 0.01 | 0.00 | 55 | 1034.7 |
| 20260902153232 | 69 | 38 | 0.0 | 0.0 | 0.00 | 0.01 | 0.00 | 55 | 1034.7 |
| 20260902152735 | 69 | 66 | 0.0 | 0.0 | 0.00 | 0.01 | 0.00 | 55 | 1034.6 |
| 20260902152235 | 68 | 104 | 0.0 | 0.0 | 0.00 | 0.01 | 0.00 | 55 | 1034.6 |
| 20260902151735 | 69 | 89 | 0.0 | 0.0 | 0.00 | 0.01 | 0.00 | 57 | 1034.6 |
| 20260902151235 | 68 | 79 | 0.0 | 0.0 | 0.00 | 0.01 | 0.00 | 58 | 1034.5 |
| 20260902150735 | 67 | 73 | 0.0 | 0.0 | 0.00 | 0.01 | 0.00 | 57 | 1034.5 |
| 20260902150232 | 67 | 18 | 0.0 | 0.0 | 0.00 | 0.01 | 0.00 | 57 | 1034.5 |
| 20260902145735 | 66 | 96 | 0.0 | 0.0 | 0.00 | 0.01 | 0.00 | 58 | 1034.5 |
| 20260902145235 | 66 | 23 | 0.0 | 0.0 | 0.00 | 0.01 | 0.00 | 60 | 1034.5 |
| 20260902144735 | 65 | 68 | 0.0 | 0.0 | 0.00 | 0.01 | 0.00 | 60 | 1034.5 |
| 20260902144235 | 65 | 70 | 0.0 | 0.0 | 0.00 | 0.01 | 0.00 | 60 | 1034.4 |
| 20260902143732 | 65 | 0 | 0.0 | 0.0 | 0.00 | 0.01 | 0.00 | 61 | 1034.4 |
| 20260902143235 | 65 | 5 | 0.0 | 0.0 | 0.00 | 0.01 | 0.00 | 61 | 1034.3 |
| 20260902142735 | 65 | 83 | 0.0 | 0.0 | 0.00 | 0.01 | 0.00 | 62 | 1034.3 |
| 20260902142235 | 64 | 16 | 0.0 | 0.0 | 0.00 | 0.01 | 0.00 | 62 | 1034.2 |
| 20260902141735 | 64 | 89 | 0.0 | 0.0 | 0.00 | 0.01 | 0.00 | 62 | 1034.2 |
| 20260902141235 | 64 | 71 | 0.0 | 0.0 | 0.00 | 0.01 | 0.00 | 61 | 1034.1 |
| 20260902140735 | 64 | 105 | 0.0 | 0.0 | 0.00 | 0.01 | 0.00 | 62 | 1034.2 |
| 20260902140232 | 63 | 78 | 0.0 | 0.0 | 0.00 | 0.01 | 0.00 | 62 | 1034.1 |
| 20260902135732 | 63 | 75 | 0.0 | 0.0 | 0.00 | 0.01 | 0.00 | 61 | 1034.1 |
| 20260902135235 | 63 | 86 | 0.0 | 4.0 | 0.00 | 0.01 | 0.00 | 60 | 1033.9 |
| 20260902134735 | 63 | 128 | 0.0 | 0.0 | 0.00 | 0.01 | 0.00 | 59 | 1034.0 |
| 20260902134235 | 63 | 10 | 0.0 | 0.0 | 0.00 | 0.01 | 0.00 | 59 | 1034.0 |
| 20260902133735 | 63 | 72 | 0.0 | 0.0 | 0.00 | 0.01 | 0.00 | 61 | 1033.8 |
| 20260902133235 | 63 | 356 | 0.0 | 0.0 | 0.00 | 0.01 | 0.00 | 60 | 1033.8 |
| 20260902132732 | 62 | 340 | 0.0 | 0.0 | 0.00 | 0.01 | 0.00 | 60 | 1033.8 |
| 20260902132232 | 62 | 66 | 0.0 | 0.0 | 0.00 | 0.01 | 0.00 | 63 | 1033.8 |
| 20260902131732 | 61 | 269 | 0.0 | 0.0 | 0.00 | 0.01 | 0.00 | 64 | 1033.8 |
| 20260902131235 | 60 | 270 | 0.0 | 0.0 | 0.00 | 0.01 | 0.00 | 67 | 1033.7 |
| 20260902130735 | 59 | 270 | 0.0 | 0.0 | 0.00 | 0.01 | 0.00 | 69 | 1033.9 |
| 20260902130235 | 58 | 270 | 0.0 | 0.0 | 0.00 | 0.01 | 0.00 | 71 | 1033.8 |
| 20260902125735 | 57 | 270 | 0.0 | 0.0 | 0.00 | 0.01 | 0.00 | 72 | 1033.9 |
| 20260902125232 | 57 | 270 | 0.0 | 0.0 | 0.00 | 0.01 | 0.00 | 72 | 1033.9 |
| 20260902124732 | 57 | 172 | 0.0 | 0.0 | 0.00 | 0.01 | 0.00 | 71 | 1033.9 |
| 20260902124232 | 58 | 145 | 0.0 | 0.0 | 0.00 | 0.01 | 0.00 | 70 | 1033.9 |
| 20260902123732 | 58 | 145 | 0.0 | 0.0 | 0.00 | 0.01 | 0.00 | 69 | 1034.0 |
| 20260902123235 | 58 | 145 | 0.0 | 0.0 | 0.00 | 0.02 | 0.00 | 70 | 1033.9 |
| 20260902122735 | 58 | 145 | 0.0 | 0.0 | 0.00 | 0.02 | 0.00 | 70 | 1033.9 |
| 20260902122232 | 58 | 145 | 0.0 | 0.0 | 0.00 | 0.02 | 0.00 | 69 | 1033.9 |
| 20260902121735 | 58 | 253 | 0.0 | 0.0 | 0.00 | 0.02 | 0.00 | 70 | 1033.9 |
| 20260902121232 | 58 | 253 | 0.0 | 0.0 | 0.00 | 0.02 | 0.00 | 70 | 1033.9 |
| 20260902120735 | 59 | 253 | 0.0 | 0.0 | 0.00 | 0.02 | 0.00 | 69 | 1034.0 |
| 20260902120232 | 59 | 253 | 0.0 | 0.0 | 0.00 | 0.02 | 0.00 | 68 | 1034.0 |
| 20260902115732 | 60 | 253 | 0.0 | 0.0 | 0.00 | 0.02 | 0.00 | 68 | 1034.1 |
| 20260902115232 | 60 | 253 | 0.0 | 0.0 | 0.00 | 0.02 | 0.00 | 67 | 1034.0 |
| 20260902114732 | 60 | 253 | 0.0 | 0.0 | 0.00 | 0.03 | 0.00 | 67 | 1034.1 |
| 20260902114235 | 60 | 253 | 0.0 | 0.0 | 0.00 | 0.03 | 0.00 | 66 | 1034.2 |
| 20260902113732 | 61 | 253 | 0.0 | 0.0 | 0.00 | 0.03 | 0.00 | 63 | 1034.2 |
| 20260902113232 | 61 | 253 | 0.0 | 0.0 | 0.00 | 0.03 | 0.00 | 60 | 1034.3 |
| 20260902112735 | 62 | 253 | 0.0 | 0.0 | 0.00 | 0.03 | 0.00 | 59 | 1034.3 |
| 20260902112232 | 62 | 253 | 0.0 | 0.0 | 0.00 | 0.03 | 0.00 | 58 | 1034.3 |
| 20260902111735 | 62 | 253 | 0.0 | 0.0 | 0.00 | 0.03 | 0.00 | 58 | 1034.3 |
| 20260902111235 | 62 | 253 | 0.0 | 0.0 | 0.00 | 0.03 | 0.00 | 59 | 1034.4 |
| 20260902110735 | 62 | 253 | 0.0 | 0.0 | 0.00 | 0.03 | 0.00 | 58 | 1034.5 |
| 20260902110232 | 62 | 253 | 0.0 | 0.0 | 0.00 | 0.04 | 0.00 | 58 | 1034.6 |
| 20260902105735 | 62 | 253 | 0.0 | 0.0 | 0.00 | 0.04 | 0.00 | 59 | 1034.6 |
| 20260902105232 | 62 | 253 | 0.0 | 0.0 | 0.00 | 0.04 | 0.00 | 60 | 1034.5 |
| 20260902104735 | 61 | 253 | 0.0 | 0.0 | 0.00 | 0.04 | 0.00 | 60 | 1034.6 |
| 20260902104235 | 61 | 253 | 0.0 | 0.0 | 0.00 | 0.04 | 0.00 | 60 | 1034.6 |
| 20260902103732 | 61 | 253 | 0.0 | 0.0 | 0.00 | 0.04 | 0.00 | 60 | 1034.5 |
| 20260902103235 | 61 | 253 | 0.0 | 0.0 | 0.00 | 0.04 | 0.00 | 60 | 1034.6 |
| 20260902102735 | 61 | 253 | 0.0 | 0.0 | 0.00 | 0.04 | 0.00 | 61 | 1034.6 |
| 20260902102232 | 61 | 253 | 0.0 | 0.0 | 0.00 | 0.04 | 0.00 | 61 | 1034.6 |
| 20260902101735 | 61 | 253 | 0.0 | 0.0 | 0.00 | 0.04 | 0.00 | 61 | 1034.7 |
| 20260902101235 | 61 | 253 | 0.0 | 0.0 | 0.00 | 0.04 | 0.00 | 61 | 1034.7 |
| 20260902100732 | 61 | 253 | 0.0 | 0.0 | 0.00 | 0.04 | 0.00 | 62 | 1034.8 |
| 20260902100235 | 61 | 253 | 0.0 | 0.0 | 0.00 | 0.04 | 0.00 | 62 | 1034.8 |
| 20260902095732 | 61 | 251 | 0.0 | 0.0 | 0.00 | 0.04 | 0.00 | 62 | 1034.9 |
| 20260902095232 | 60 | 252 | 0.0 | 0.0 | 0.00 | 0.04 | 0.00 | 62 | 1034.9 |
| 20260902094732 | 60 | 255 | 0.0 | 0.0 | 0.00 | 0.04 | 0.00 | 62 | 1035.0 |
| 20260902094232 | 60 | 258 | 0.0 | 0.0 | 0.00 | 0.04 | 0.00 | 63 | 1035.0 |
| 20260902093735 | 60 | 258 | 0.0 | 0.0 | 0.00 | 0.04 | 0.00 | 63 | 1035.2 |
| 20260902093235 | 60 | 259 | 0.0 | 0.0 | 0.00 | 0.04 | 0.00 | 63 | 1035.3 |
| 20260902092735 | 61 | 287 | 0.0 | 0.0 | 0.00 | 0.04 | 0.00 | 62 | 1035.3 |
| 20260902092232 | 61 | 354 | 0.0 | 0.0 | 0.00 | 0.04 | 0.00 | 62 | 1035.3 |
| 20260902091732 | 60 | 354 | 0.0 | 0.0 | 0.00 | 0.04 | 0.00 | 62 | 1035.4 |
| 20260902091232 | 59 | 354 | 0.0 | 0.0 | 0.00 | 0.04 | 0.00 | 64 | 1035.5 |
| 20260902090735 | 60 | 354 | 0.0 | 0.0 | 0.00 | 0.04 | 0.00 | 65 | 1035.5 |
| 20260902090232 | 60 | 354 | 0.0 | 0.0 | 0.00 | 0.04 | 0.00 | 64 | 1035.5 |
| 20260902085735 | 61 | 354 | 0.0 | 0.0 | 0.00 | 0.04 | 0.00 | 62 | 1035.6 |
| 20260902085232 | 61 | 354 | 0.0 | 0.0 | 0.00 | 0.04 | 0.00 | 62 | 1035.6 |
| 20260902084735 | 60 | 354 | 0.0 | 0.0 | 0.00 | 0.04 | 0.00 | 63 | 1035.6 |
| 20260902084232 | 61 | 101 | 0.0 | 0.0 | 0.00 | 0.04 | 0.00 | 65 | 1035.7 |
| 20260902083732 | 61 | 102 | 0.0 | 0.0 | 0.00 | 0.04 | 0.00 | 65 | 1035.6 |
| 20260902083235 | 61 | 101 | 0.0 | 0.0 | 0.00 | 0.04 | 0.00 | 64 | 1035.6 |
| 20260902082735 | 61 | 124 | 0.0 | 0.0 | 0.00 | 0.04 | 0.00 | 64 | 1035.6 |
| 20260902082232 | 62 | 124 | 0.0 | 0.0 | 0.00 | 0.04 | 0.00 | 63 | 1035.6 |
| 20260902081732 | 62 | 148 | 0.0 | 0.0 | 0.00 | 0.04 | 0.00 | 62 | 1035.7 |
| 20260902081235 | 63 | 150 | 0.0 | 0.0 | 0.00 | 0.04 | 0.00 | 61 | 1035.8 |
| 20260902080735 | 63 | 98 | 0.0 | 0.0 | 0.00 | 0.04 | 0.00 | 60 | 1035.9 |
| 20260902080235 | 63 | 98 | 0.0 | 0.0 | 0.00 | 0.04 | 0.00 | 59 | 1035.9 |
| 20260902075732 | 63 | 98 | 0.0 | 0.0 | 0.00 | 0.04 | 0.00 | 57 | 1036.0 |
| 20260902075235 | 63 | 99 | 0.0 | 0.0 | 0.00 | 0.04 | 0.00 | 58 | 1036.1 |
| 20260902074735 | 63 | 262 | 0.0 | 0.0 | 0.00 | 0.04 | 0.00 | 54 | 1036.1 |
| 20260902074232 | 63 | 261 | 0.0 | 0.0 | 0.00 | 0.04 | 0.00 | 57 | 1036.1 |
| 20260902073735 | 62 | 262 | 0.0 | 0.0 | 0.00 | 0.04 | 0.00 | 59 | 1036.2 |
| 20260902073235 | 61 | 262 | 0.0 | 0.0 | 0.00 | 0.04 | 0.00 | 62 | 1036.2 |
| 20260902072735 | 61 | 261 | 0.0 | 0.0 | 0.00 | 0.04 | 0.00 | 62 | 1036.2 |
| 20260902072235 | 62 | 262 | 0.0 | 0.0 | 0.00 | 0.04 | 0.00 | 61 | 1036.3 |
| 20260902071735 | 62 | 262 | 0.0 | 0.0 | 0.00 | 0.04 | 0.00 | 60 | 1036.3 |
| 20260902071232 | 63 | 262 | 0.0 | 0.0 | 0.00 | 0.04 | 0.00 | 59 | 1036.4 |
| 20260902070735 | 63 | 262 | 0.0 | 0.0 | 0.00 | 0.04 | 0.00 | 58 | 1036.4 |
| 20260902070232 | 64 | 262 | 0.0 | 0.0 | 0.00 | 0.04 | 0.00 | 56 | 1036.4 |
| 20260902065735 | 63 | 258 | 0.0 | 0.0 | 0.00 | 0.04 | 0.00 | 55 | 1036.4 |
| 20260902065232 | 64 | 258 | 0.0 | 0.0 | 0.00 | 0.04 | 0.00 | 55 | 1036.5 |
| 20260902064732 | 64 | 259 | 0.0 | 0.0 | 0.00 | 0.04 | 0.00 | 55 | 1036.4 |
| 20260902064232 | 64 | 250 | 0.0 | 0.0 | 0.00 | 0.04 | 0.00 | 55 | 1036.3 |
| 20260902063735 | 64 | 250 | 0.0 | 0.0 | 0.00 | 0.04 | 0.00 | 56 | 1036.5 |
| 20260902063232 | 64 | 250 | 0.0 | 0.0 | 0.00 | 0.04 | 0.00 | 55 | 1036.4 |
| 20260902062735 | 65 | 241 | 0.0 | 0.0 | 0.00 | 0.04 | 0.00 | 55 | 1036.5 |
| 20260902061732 | 65 | 250 | 0.0 | 0.0 | 0.00 | 0.04 | 0.00 | 56 | 1036.5 |
| 20260902061232 | 64 | 247 | 0.0 | 0.0 | 0.00 | 0.04 | 0.00 | 56 | 1036.5 |
| 20260902060735 | 64 | 246 | 0.0 | 0.0 | 0.00 | 0.04 | 0.00 | 56 | 1036.6 |
| 20260902060235 | 65 | 245 | 0.0 | 0.0 | 0.00 | 0.04 | 0.00 | 56 | 1036.4 |
| 20260902055735 | 65 | 245 | 0.0 | 0.0 | 0.00 | 0.04 | 0.00 | 56 | 1036.5 |
| 20260902055232 | 65 | 245 | 0.0 | 0.0 | 0.00 | 0.04 | 0.00 | 56 | 1036.6 |
| 20260902054732 | 65 | 243 | 0.0 | 0.0 | 0.00 | 0.04 | 0.00 | 56 | 1036.6 |
| 20260902054235 | 65 | 243 | 0.0 | 0.0 | 0.00 | 0.04 | 0.00 | 57 | 1036.6 |
| 20260902053732 | 65 | 243 | 0.0 | 0.0 | 0.00 | 0.04 | 0.00 | 57 | 1036.6 |
| 20260902053232 | 64 | 226 | 0.0 | 0.0 | 0.00 | 0.04 | 0.00 | 56 | 1036.6 |
| 20260902052735 | 64 | 231 | 0.0 | 0.0 | 0.00 | 0.04 | 0.00 | 57 | 1036.7 |
| 20260902052232 | 64 | 242 | 0.0 | 0.0 | 0.00 | 0.04 | 0.00 | 57 | 1036.7 |
| 20260902051732 | 64 | 241 | 0.0 | 0.0 | 0.00 | 0.04 | 0.00 | 56 | 1036.8 |
| 20260902051235 | 64 | 242 | 0.0 | 0.0 | 0.00 | 0.04 | 0.00 | 57 | 1036.7 |
| 20260902050732 | 64 | 242 | 0.0 | 0.0 | 0.00 | 0.04 | 0.00 | 59 | 1036.7 |
| 20260902050235 | 64 | 242 | 0.0 | 0.0 | 0.00 | 0.04 | 0.00 | 61 | 1036.7 |
| 20260902045732 | 64 | 242 | 0.0 | 0.0 | 0.00 | 0.04 | 0.00 | 60 | 1036.7 |
| 20260902045235 | 64 | 242 | 0.0 | 0.0 | 0.00 | 0.04 | 0.00 | 60 | 1036.8 |
| 20260902044735 | 64 | 242 | 0.0 | 0.0 | 0.00 | 0.04 | 0.00 | 60 | 1036.8 |
| 20260902044235 | 65 | 241 | 0.0 | 0.0 | 0.00 | 0.04 | 0.00 | 61 | 1036.8 |
| 20260902043735 | 65 | 242 | 0.0 | 0.0 | 0.00 | 0.04 | 0.00 | 60 | 1036.8 |
| 20260902043235 | 65 | 242 | 0.0 | 0.0 | 0.00 | 0.04 | 0.00 | 60 | 1036.8 |
| 20260902042735 | 65 | 256 | 0.0 | 0.0 | 0.00 | 0.04 | 0.00 | 60 | 1036.8 |
| 20260902042235 | 65 | 256 | 0.0 | 0.0 | 0.00 | 0.04 | 0.00 | 60 | 1036.8 |
| 20260902041735 | 65 | 256 | 0.0 | 0.0 | 0.00 | 0.04 | 0.00 | 59 | 1036.8 |
| 20260902041235 | 65 | 256 | 0.0 | 0.0 | 0.00 | 0.04 | 0.00 | 60 | 1036.8 |
| 20260902040735 | 66 | 256 | 0.0 | 0.0 | 0.00 | 0.04 | 0.00 | 59 | 1036.7 |
| 20260902040235 | 66 | 256 | 0.0 | 0.0 | 0.00 | 0.04 | 0.00 | 58 | 1036.7 |
| 20260902035735 | 66 | 256 | 0.0 | 0.0 | 0.00 | 0.05 | 0.00 | 59 | 1036.6 |
| 20260902035235 | 65 | 256 | 0.0 | 0.0 | 0.00 | 0.05 | 0.00 | 60 | 1036.6 |
| 20260902034732 | 65 | 256 | 0.0 | 0.0 | 0.00 | 0.05 | 0.00 | 61 | 1036.5 |
| 20260902034232 | 65 | 256 | 0.0 | 0.0 | 0.00 | 0.05 | 0.00 | 61 | 1036.5 |
| 20260902033735 | 65 | 256 | 0.0 | 0.0 | 0.00 | 0.05 | 0.00 | 63 | 1036.4 |
| 20260902033235 | 65 | 256 | 0.0 | 0.0 | 0.00 | 0.05 | 0.00 | 64 | 1036.3 |
| 20260902032735 | 64 | 256 | 0.0 | 0.0 | 0.00 | 0.05 | 0.00 | 64 | 1036.3 |
| 20260902032235 | 65 | 256 | 0.0 | 0.0 | 0.00 | 0.05 | 0.00 | 63 | 1036.2 |
| 20260902031735 | 65 | 256 | 0.0 | 0.0 | 0.00 | 0.05 | 0.00 | 63 | 1036.1 |
| 20260902031235 | 65 | 256 | 0.0 | 0.0 | 0.00 | 0.05 | 0.00 | 63 | 1036.1 |
| 20260902030735 | 65 | 257 | 0.0 | 0.0 | 0.00 | 0.05 | 0.00 | 63 | 1035.9 |
| 20260902030232 | 65 | 256 | 0.0 | 0.0 | 0.00 | 0.05 | 0.00 | 65 | 1035.8 |
| 20260902025735 | 64 | 256 | 0.0 | 0.0 | 0.00 | 0.05 | 0.00 | 66 | 1035.8 |
| 20260902025235 | 64 | 262 | 0.0 | 0.0 | 0.00 | 0.05 | 0.00 | 67 | 1035.6 |
| 20260902024732 | 64 | 273 | 0.0 | 0.0 | 0.00 | 0.05 | 0.00 | 66 | 1035.5 |
| 20260902024235 | 64 | 86 | 0.0 | 0.0 | 0.00 | 0.05 | 0.00 | 66 | 1035.4 |
| 20260902023735 | 64 | 86 | 0.0 | 0.0 | 0.00 | 0.05 | 0.00 | 67 | 1035.4 |
| 20260902023235 | 64 | 86 | 0.0 | 0.0 | 0.00 | 0.05 | 0.00 | 67 | 1035.3 |
| 20260902022735 | 64 | 86 | 0.0 | 0.0 | 0.00 | 0.05 | 0.00 | 66 | 1035.3 |
| 20260902022235 | 65 | 86 | 0.0 | 0.0 | 0.00 | 0.05 | 0.00 | 66 | 1035.2 |
| 20260902021732 | 65 | 86 | 0.0 | 0.0 | 0.00 | 0.05 | 0.00 | 65 | 1035.1 |
| 20260902021235 | 65 | 86 | 0.0 | 0.0 | 0.00 | 0.05 | 0.00 | 64 | 1035.0 |
| 20260902020732 | 65 | 86 | 0.0 | 0.0 | 0.00 | 0.05 | 0.00 | 64 | 1034.9 |
| 20260902020232 | 66 | 86 | 0.0 | 0.0 | 0.00 | 0.05 | 0.00 | 63 | 1034.9 |
| 20260902015735 | 66 | 86 | 0.0 | 0.0 | 0.00 | 0.05 | 0.00 | 62 | 1034.8 |
| 20260902015235 | 67 | 86 | 0.0 | 0.0 | 0.00 | 0.05 | 0.00 | 61 | 1034.7 |
| 20260902014732 | 67 | 86 | 0.0 | 0.0 | 0.00 | 0.05 | 0.00 | 60 | 1034.6 |
| 20260902014232 | 67 | 87 | 0.0 | 0.0 | 0.00 | 0.05 | 0.00 | 60 | 1034.5 |
| 20260902013735 | 68 | 87 | 0.0 | 0.0 | 0.00 | 0.05 | 0.00 | 60 | 1034.5 |
| 20260902013235 | 68 | 87 | 0.0 | 0.0 | 0.00 | 0.05 | 0.00 | 59 | 1034.5 |
| 20260902012735 | 68 | 77 | 0.0 | 0.0 | 0.00 | 0.05 | 0.00 | 59 | 1034.4 |
| 20260902012232 | 68 | 70 | 0.0 | 0.0 | 0.00 | 0.05 | 0.00 | 58 | 1034.4 |
| 20260902011732 | 69 | 83 | 0.0 | 0.0 | 0.00 | 0.05 | 0.00 | 57 | 1034.3 |
| 20260902011235 | 70 | 83 | 0.0 | 0.0 | 0.00 | 0.06 | 0.00 | 56 | 1034.2 |
| 20260902010732 | 71 | 74 | 0.0 | 0.0 | 0.00 | 0.06 | 0.00 | 53 | 1034.1 |
| 20260902010232 | 72 | 338 | 0.0 | 0.0 | 0.00 | 0.06 | 0.00 | 52 | 1034.1 |
| 20260902005735 | 71 | 338 | 0.0 | 0.0 | 0.00 | 0.06 | 0.00 | 53 | 1034.1 |
| 20260902005232 | 70 | 339 | 0.0 | 0.0 | 0.00 | 0.06 | 0.00 | 54 | 1034.1 |
| 20260902004732 | 70 | 337 | 0.0 | 0.0 | 0.00 | 0.06 | 0.00 | 56 | 1034.1 |
| 20260902004232 | 70 | 28 | 0.0 | 0.0 | 0.00 | 0.06 | 0.00 | 57 | 1034.0 |
| 20260902003735 | 69 | 9 | 0.0 | 0.0 | 0.00 | 0.06 | 0.00 | 57 | 1034.0 |
| 20260902003235 | 69 | 335 | 0.0 | 0.0 | 0.00 | 0.06 | 0.00 | 57 | 1034.1 |
| 20260902002732 | 69 | 49 | 0.0 | 0.0 | 0.00 | 0.06 | 0.00 | 57 | 1034.1 |
| 20260902002235 | 69 | 325 | 0.0 | 0.0 | 0.00 | 0.06 | 0.00 | 55 | 1034.1 |
| 20260902001735 | 70 | 38 | 0.0 | 0.0 | 0.00 | 0.06 | 0.00 | 55 | 1034.0 |
| 20260902001232 | 70 | 6 | 0.0 | 0.0 | 0.00 | 0.06 | 0.00 | 55 | 1033.9 |
| 20260902000732 | 70 | 64 | 0.0 | 0.0 | 0.00 | 0.06 | 0.00 | 54 | 1033.8 |
| 20260902000233 | 71 | 35 | 0.0 | 0.0 | 0.00 | 0.06 | 0.00 | 55 | 1033.7 |
| 20260901235735 | 71 | 30 | 0.0 | 0.0 | 0.00 | 0.06 | 0.00 | 56 | 1033.6 |
| 20260901235232 | 71 | 30 | 0.0 | 7.0 | 0.00 | 0.06 | 0.00 | 55 | 1033.5 |
| 20260901234735 | 72 | 343 | 0.0 | 0.0 | 0.00 | 0.06 | 0.00 | 54 | 1033.4 |
| 20260901234235 | 72 | 68 | 0.0 | 0.0 | 0.00 | 0.06 | 0.00 | 52 | 1033.4 |
| 20260901233732 | 73 | 33 | 0.0 | 6.0 | 0.00 | 0.06 | 0.00 | 53 | 1033.2 |
| 20260901233232 | 73 | 25 | 0.0 | 4.0 | 0.00 | 0.06 | 0.00 | 54 | 1033.2 |
| 20260901232732 | 73 | 58 | 0.0 | 0.0 | 0.00 | 0.06 | 0.00 | 55 | 1033.1 |
| 20260901232235 | 72 | 87 | 0.0 | 0.0 | 0.00 | 0.11 | 0.00 | 56 | 1033.1 |
| 20260901231735 | 71 | 67 | 0.0 | 0.0 | 0.00 | 0.11 | 0.00 | 56 | 1033.0 |
| 20260901231232 | 71 | 86 | 0.0 | 0.0 | 0.00 | 0.11 | 0.00 | 56 | 1033.0 |